Location: Unspecified
(0.0000°N, 0.0000°E)
Time: 22:33:08
(UTC+00:00)

OV3-3 - Pass Details

Date: 30 September 2017
Orbit: 341 x 2257 km, 81.4° (Epoch: 23 October)

Event Time Altitude Azimuth Distance (km) Brightness Sun altitude
Rises 18:25:23 0° 318° (NW) 5,195 11.9 -8.9°
Reaches altitude 10° 18:29:55 10° 301° (WNW) 4,459 11.8 -10.0°
Maximum altitude 18:37:02 18° 264° (W) 4,077 11.9 -11.8°
Drops below altitude 10° 18:44:45 10° 227° (SW) 4,821 11.8 -13.7°
Sets 18:50:08 0° 210° (SSW) 5,770 12.0 -15.0°
